"2009-03-11 00:00:30",700180,5.697,289.8,15.91,1.089,4.359,100.8025,1.347,2.54,14.31,0,109.7,13.48,2.10,251.8
"2009-03-11 00:01:00",700181,5.561,296.3,10.11,1.045,2.81,100.8129,1.373,2.555,13.75,0,109.8,13.48,2.13,258.3
"2009-03-11 00:01:30",700182,5.004,301.9,14.32,1.665,2.232,100.8295,1.416,2.393,13.38,0,109.8,13.48,2.17,263.9
"2009-03-11 00:02:00",700183,4.042,317.4,8.97,1.176,3.125,100.8335,1.426,2.533,13.61,0,109.8,13.48,2.18,279.4
"2009-03-11 00:02:30",700184,3.473,304.8,5.295,0.877,1.792,100.8284,1.413,2.498,13.93,0,109.8,13.48,2.17,266.8
"2009-03-11 00:03:00",700185,4.448,296.9,7.596,1.427,4.077,100.8338,1.427,2.599,14.32,0,109.8,13.48,2.18,258.9
"2009-03-11 00:03:30",700186,5.72,291.9,8.8,1.279,3.651,100.8332,1.425,2.546,14.16,0,109.8,13.48,2.18,253.9
"2009-03-11 00:04:00",700187,4.258,315.1,9.52,1.081,3.472,100.8326,1.424,2.572,14.05,0,109.8,13.48,2.18,277.1
"2009-03-11 00:04:30",700188,4.783,299.8,12.97,1.273,2.59,100.8315,1.421,2.53,14.2,0,109.8,13.49,2.18,261.8
"2009-03-11 00:05:00",700189,4.749,274.2,13.56,1.481,2.964,100.8318,1.422,2.623,14.51,0,109.8,13.49,2.18,236.2
"2009-03-11 00:05:30",700190,4.265,288.5,14.26,1.128,2.995,100.8298,1.417,2.475,14.12,0,109.8,13.49,2.17,250.5
"2009-03-11 00:06:00",700191,5.901,309,6.876,1.234,3.11,100.8352,1.43,2.555,13.85,0,109.8,13.49,2.19,271.0
"2009-03-11 00:06:30",700192,7.85,313.9,6.877,1.056,4.468,100.8386,1.439,2.637,13.64,0,109.8,13.49,2.20,275.9
"2009-03-11 00:07:00",700193,7.534,313.9,9.81,1.369,5.231,100.8493,1.466,2.715,13.83,0,109.8,13.49,2.22,275.9
"2009-03-11 00:07:30",700194,7.577,303.8,12.18,1.098,6.049,100.8541,1.479,2.768,13.43,0,109.8,13.49,2.24,265.8
"2009-03-11 00:08:00",700195,7.472,313.8,5.896,0.784,5.604,100.8603,1.494,2.745,13.23,0,109.8,13.48,2.25,275.8
"2009-03-11 00:08:30",700196,8.02,322.6,5.142,0.66,5.265,100.864,1.504,2.749,13.22,0,109.8,13.48,2.26,284.6
"2009-03-11 00:09:00",700197,8.18,311,6.715,0.723,5.378,100.8657,1.508,2.762,13.34,0,109.8,13.48,2.27,273.0
"2009-03-11 00:09:30",700198,8.45,311.4,8.46,0.925,4.783,100.8646,1.505,2.771,13.28,0,109.8,13.48,2.26,273.4
"2009-03-11 00:10:00",700199,8.09,300,9.26,1.412,3.657,100.8654,1.507,2.723,13.16,0,109.7,13.48,2.26,262.0
"2009-03-11 00:10:30",700200,8.07,306.2,8.53,1.278,2.738,100.8654,1.507,2.76,13.08,0,109.8,13.48,2.26,268.2
"2009-03-11 00:11:00",700201,7.208,301,9.22,1.434,3.82,100.8609,1.496,2.612,12.89,0,109.8,13.48,2.25,263.0
"2009-03-11 00:11:30",700202,6.237,297.3,15.4,1.431,4.669,100.8547,1.48,2.69,13.11,0,109.8,13.48,2.24,259.3
"2009-03-11 00:12:00",700203,6.836,317.5,8.38,1.075,5.273,100.8569,1.486,2.727,13.19,0,109.8,13.48,2.24,279.5
"2009-03-11 00:12:30",700204,5.666,309.2,7.922,1.005,4.813,100.8502,1.469,2.675,13.22,0,109.8,13.48,2.23,271.2
"2009-03-11 00:13:00",700205,7.094,288.3,7.211,1.711,3.971,100.8558,1.483,2.677,13.26,0,109.8,13.48,2.24,250.3
"2009-03-11 00:13:30",700206,7.322,293.2,11.28,1.53,4.277,100.8637,1.503,2.665,13.15,0,109.8,13.48,2.26,255.2
"2009-03-11 00:14:00",700207,7.604,296.2,6.187,1.206,4.285,100.8694,1.518,2.682,13.11,0,109.8,13.48,2.27,258.2
"2009-03-11 00:14:30",700208,6.891,310.4,10.08,1.147,3.676,100.8688,1.516,2.709,13.14,0,109.8,13.48,2.27,272.4
"2009-03-11 00:15:00",700209,9.54,304.5,4.239,0.79,5.56,100.8694,1.518,2.784,13.28,0,109.8,13.48,2.27,266.5
"2009-03-11 00:15:30",700210,9.72,307.5,4.056,0.761,5.781,100.87,1.519,2.803,13.27,0,109.8,13.48,2.28,269.5
"2009-03-11 00:16:00",700211,8.61,297.8,4.935,0.799,5.779,100.8714,1.523,2.787,13.27,0,109.8,13.48,2.28,259.8
"2009-03-11 00:16:30",700212,9.43,300.5,6.269,0.696,5.502,100.8717,1.523,2.819,13.28,0,109.8,13.47,2.28,262.5
"2009-03-11 00:17:00",700213,8.87,302.8,10.03,0.953,4.28,100.874,1.529,2.718,13.2,0,109.8,13.47,2.29,264.8
"2009-03-11 00:17:30",700214,9.11,310.9,6.872,1.021,4.361,100.8731,1.527,2.731,13.23,0,109.8,13.47,2.28,272.9
"2009-03-11 00:18:00",700215,8,289.4,5.314,0.898,1.596,100.8745,1.531,2.596,13.28,0,109.8,13.48,2.29,251.4
"2009-03-11 00:18:30",700216,9.96,293.2,5.546,1.133,4.72,100.8731,1.527,2.762,13.47,0,109.8,13.48,2.28,255.2
"2009-03-11 00:19:00",700217,9.7,306.6,8.26,0.896,5.972,100.8743,1.53,2.81,13.55,0,109.8,13.47,2.29,268.6
"2009-03-11 00:19:30",700218,9.4,292,7.271,1.11,6.225,100.8745,1.531,2.82,13.53,0,109.8,13.48,2.29,254.0
"2009-03-11 00:20:00",700219,9.47,292.9,7.384,0.794,5.917,100.8754,1.533,2.827,13.42,0,109.8,13.48,2.29,254.9
"2009-03-11 00:20:30",700220,8.43,289,8.01,1.022,5.944,100.876,1.534,2.808,13.31,0,109.8,13.48,2.29,251.0
"2009-03-11 00:21:00",700221,7.217,288.7,7.373,0.726,5.793,100.8762,1.535,2.807,13.14,0,109.8,13.48,2.29,250.7
"2009-03-11 00:21:30",700222,8.15,298.3,4.705,0.936,5.13,100.8765,1.536,2.759,13.07,0,109.8,13.48,2.29,260.3
"2009-03-11 00:22:00",700223,7.809,295.7,6.703,1.416,1.342,100.8797,1.544,2.642,12.95,0,109.8,13.48,2.30,257.7
"2009-03-11 00:22:30",700224,8.8,280.6,6.295,0.967,1.496,100.8785,1.541,2.607,13.07,0,109.8,13.48,2.30,242.6
"2009-03-11 00:23:00",700225,10.43,306,7.911,1.092,5.581,100.8797,1.544,2.729,13.14,0,109.8,13.48,2.30,268.0
"2009-03-11 00:23:30",700226,10.3,294.9,7.212,0.797,6.539,100.8794,1.543,2.829,13.21,0,109.8,13.48,2.30,256.9
"2009-03-11 00:24:00",700227,10.63,293.2,5.206,0.83,6.621,100.8808,1.547,2.827,13.14,0,109.8,13.48,2.30,255.2
"2009-03-11 00:24:30",700228,9.84,298.2,6.315,0.998,6.356,100.8808,1.547,2.845,13.11,0,109.8,13.48,2.30,260.2
"2009-03-11 00:25:00",700229,10.5,298,5.69,0.737,6.33,100.8822,1.55,2.825,12.94,0,109.8,13.48,2.31,260.0
"2009-03-11 00:25:30",700230,8.82,302.2,8.41,0.697,6.088,100.8904,1.571,2.83,13,0,109.8,13.48,2.33,264.2
"2009-03-11 00:26:00",700231,8.63,309.9,8.57,0.899,5.664,100.8952,1.584,2.821,13,0,109.8,13.48,2.34,271.9
"2009-03-11 00:26:30",700232,8.86,308.5,6.831,1.178,5.385,100.8998,1.595,2.85,12.98,0,109.8,13.48,2.35,270.5
"2009-03-11 00:27:00",700233,8.18,289.1,10.26,1.228,4.786,100.9046,1.607,2.746,12.89,0,109.8,13.48,2.37,251.1
"2009-03-11 00:27:30",700234,7.957,282.2,7.38,1.096,1.911,100.9102,1.622,2.623,12.79,0,109.8,13.48,2.38,244.2
"2009-03-11 00:28:00",700235,10.52,300.2,6.064,0.84,5.427,100.9147,1.633,2.767,12.91,0,109.8,13.48,2.39,262.2
"2009-03-11 00:28:30",700236,9.32,298.4,12.16,1.168,6.136,100.9159,1.636,2.859,13.14,0,109.8,13.48,2.39,260.4
"2009-03-11 00:29:00",700237,10.21,310.3,6.095,1.516,6.404,100.9159,1.636,2.886,13.08,0,109.8,13.48,2.39,272.3
"2009-03-11 00:29:30",700238,9.1,315.4,5.362,0.81,6.443,100.9159,1.636,2.889,12.83,0,109.8,13.48,2.39,277.4
"2009-03-11 00:30:00",700239,10.38,292.3,8.4,1.256,6.282,100.9159,1.636,2.874,12.86,0,109.8,13.48,2.39,254.3
"2009-03-11 00:30:30",700240,10.47,291.6,4.923,0.989,6.358,100.9159,1.636,2.873,13.01,0,109.8,13.48,2.39,253.6
"2009-03-11 00:31:00",700241,9.07,289,6.915,0.788,5.752,100.9159,1.636,2.878,13.03,0,109.8,13.48,2.39,251.0
"2009-03-11 00:31:30",700242,8.68,295.6,16.01,1.128,5.551,100.9159,1.636,2.88,13.04,0,109.8,13.48,2.39,257.6
"2009-03-11 00:32:00",700243,6.66,301.2,8.48,0.982,5.426,100.9159,1.636,2.899,13.04,0,109.8,13.48,2.39,263.2
"2009-03-11 00:32:30",700244,5.28,281.8,29.37,1.318,4.072,100.9159,1.636,2.846,12.93,0,109.7,13.48,2.39,243.8
"2009-03-11 00:33:00",700245,3.75,287.5,15.86,0.528,0.623,100.9159,1.636,2.584,12.63,0,109.7,13.51,2.39,249.5
"2009-03-11 00:33:30",700246,5.207,312.6,9.78,0.684,0.764,100.9159,1.636,2.59,12.63,0,109.8,13.51,2.39,274.6
"2009-03-11 00:34:00",700247,7.96,325,8.89,1.773,4.192,100.9159,1.636,2.822,12.9,0,109.7,13.48,2.39,287.0
"2009-03-11 00:34:30",700248,8.28,323.3,8.7,0.829,6.716,100.9159,1.636,2.927,13,0,109.8,13.48,2.39,285.3
"2009-03-11 00:35:00",700249,8.01,327.3,9.5,0.762,6.921,100.9164,1.638,2.908,13.01,0,109.8,13.48,2.40,289.3
"2009-03-11 00:35:30",700250,7.585,316.7,7.826,0.897,6.701,100.9173,1.64,2.918,13.06,0,109.7,13.48,2.40,278.7
"2009-03-11 00:36:00",700251,8.48,317.4,7.097,0.683,6.159,100.9198,1.646,2.93,13.09,0,109.7,13.48,2.40,279.4
"2009-03-11 00:36:30",700252,9.61,294.4,7.067,0.734,6.203,100.921,1.649,2.927,13.14,0,109.7,13.48,2.41,256.4
"2009-03-11 00:37:00",700253,9.37,304.2,5.927,0.953,5.626,100.9221,1.652,2.949,13.17,0,109.7,13.48,2.41,266.2
"2009-03-11 00:37:30",700254,9.38,308.9,3.961,0.888,5.452,100.926,1.662,2.959,13.19,0,109.7,13.48,2.42,270.9
"2009-03-11 00:38:00",700255,8.94,297,5.36,0.924,5.727,100.9263,1.663,2.939,13.29,0,109.7,13.48,2.42,259.0
"2009-03-11 00:38:30",700256,8.5,283,8.04,0.716,5.346,100.9252,1.66,2.944,13.39,0,109.7,13.48,2.42,245.0
"2009-03-11 00:39:00",700257,8.67,269.7,6.646,0.678,5.181,100.928,1.667,2.961,13.39,0,109.7,13.48,2.42,231.7
"2009-03-11 00:39:30",700258,7.312,284.5,12.67,1.026,4.952,100.9292,1.67,2.937,13.26,0,109.7,13.48,2.43,246.5
"2009-03-11 00:40:00",700259,5.204,283.9,6.082,2.032,2.659,100.9314,1.676,2.799,13.08,0,109.7,13.48,2.43,245.9
"2009-03-11 00:40:30",700260,3.353,289.6,10.63,0.825,0.238,100.9241,1.657,2.652,12.99,0,109.7,13.52,2.41,251.6
"2009-03-11 00:41:00",700261,4.843,299.4,10.14,1.301,1.595,100.9235,1.656,2.658,13.02,0,109.7,13.49,2.41,261.4
"2009-03-11 00:41:30",700262,7.048,296.4,6.053,1.696,3.961,100.9283,1.668,2.805,13.18,0,109.7,13.5,2.43,258.4
"2009-03-11 00:42:00",700263,6.707,304.8,12.96,1.329,6.558,100.9289,1.669,2.97,13.35,0,109.7,13.5,2.43,266.8
"2009-03-11 00:42:30",700264,4.86,326.2,11.39,0.896,6.257,100.9173,1.64,2.979,13.32,0,109.7,13.5,2.40,288.2
"2009-03-11 00:43:00",700265,6.77,296,7.73,0.893,5.772,100.9159,1.636,2.936,13.31,0,109.7,13.5,2.39,258.0
"2009-03-11 00:43:30",700266,4.559,319.2,11.39,1.301,2.448,100.9159,1.636,2.737,13.16,0,109.7,13.5,2.39,281.2
"2009-03-11 00:44:00",700267,2.743,309.9,8.36,0.487,0.939,100.9102,1.622,2.62,13.17,0,109.7,13.5,2.38,271.9
"2009-03-11 00:44:30",700268,3.935,297.7,8.36,1.228,3.38,100.8972,1.589,2.733,13.3,0,109.7,13.5,2.35,259.7
"2009-03-11 00:45:00",700269,4.527,284,8.57,1.156,4.105,100.8921,1.576,2.787,13.32,0,109.7,13.5,2.33,246.0
"2009-03-11 00:45:30",700270,4.894,287.8,15,1.012,6.025,100.8927,1.577,2.84,13.35,0,109.7,13.5,2.33,249.8
"2009-03-11 00:46:00",700271,4.194,275.5,11.75,1.239,5.901,100.8907,1.572,2.859,13.38,0,109.7,13.5,2.33,237.5
"2009-03-11 00:46:30",700272,4.901,291.1,10.1,0.848,3.153,100.8876,1.564,2.653,13.22,0,109.7,13.5,2.32,253.1
"2009-03-11 00:47:00",700273,6.631,277.9,6.396,1.633,2.228,100.8874,1.563,2.615,13.27,0,109.7,13.5,2.32,239.9
"2009-03-11 00:47:30",700274,5.105,270,5.436,0.609,3.155,100.8885,1.566,2.786,13.6,0,109.7,13.5,2.32,232.0
"2009-03-11 00:48:00",700275,6.328,284.2,9.45,1.119,5.829,100.8871,1.563,2.811,13.62,0,109.7,13.5,2.32,246.2
"2009-03-11 00:48:30",700276,5.126,280.9,5.449,0.75,6.34,100.8899,1.57,2.905,13.68,0,109.8,13.5,2.33,242.9
"2009-03-11 00:49:00",700277,4.949,282.8,10.86,1.101,4.93,100.8896,1.569,2.809,13.61,0,109.7,13.5,2.33,244.8
"2009-03-11 00:49:30",700278,3.773,280.8,3.072,0.543,1.124,100.8905,1.571,2.597,13.38,0,109.7,13.5,2.33,242.8
"2009-03-11 00:50:00",700279,2.875,281.9,5.098,0.657,1.885,100.8914,1.574,2.729,13.48,0,109.6,13.5,2.33,243.9
"2009-03-11 00:50:30",700280,4.396,280.7,9.36,1.186,3.529,100.8919,1.575,2.734,13.43,0,109.7,13.5,2.33,242.7
"2009-03-11 00:51:00",700281,4.626,277,6.673,1.274,5.275,100.8922,1.576,2.803,13.47,0,109.7,13.5,2.33,239.0
"2009-03-11 00:51:30",700282,5.429,265,15,1.133,5.088,100.8945,1.582,2.827,13.57,0,109.7,13.5,2.34,227.0
"2009-03-11 00:52:00",700283,6.73,272.3,8.98,1.329,4.843,100.8971,1.588,2.794,13.6,0,109.7,13.5,2.35,234.3
"2009-03-11 00:52:30",700284,6.058,281.7,14.5,1.469,4.41,100.8974,1.589,2.76,13.73,0,109.7,13.5,2.35,243.7
"2009-03-11 00:53:00",700285,5.207,291.3,8.32,1.472,4.232,100.8934,1.579,2.768,13.7,0,109.7,13.5,2.34,253.3
"2009-03-11 00:53:30",700286,6.252,306.4,10.95,1.095,5.312,100.8838,1.554,2.787,13.83,0,109.7,13.5,2.31,268.4
"2009-03-11 00:54:00",700287,5.088,301.2,9.54,1.364,4.003,100.8756,1.533,2.694,13.71,0,109.7,13.51,2.29,263.2
"2009-03-11 00:54:30",700288,6.414,283.2,7.519,1.066,5.146,100.8702,1.52,2.795,13.74,0,109.7,13.51,2.28,245.2
"2009-03-11 00:55:00",700289,7.922,286.3,5.377,1.042,5.76,100.8674,1.513,2.774,13.79,0,109.7,13.51,2.27,248.3
"2009-03-11 00:55:30",700290,8.77,297.4,13.59,1.507,5.336,100.87,1.519,2.831,13.98,0,109.7,13.51,2.28,259.4
"2009-03-11 00:56:00",700291,6.79,307.8,10.45,1.302,6.528,100.8703,1.52,2.868,14.03,0,109.7,13.51,2.28,269.8
"2009-03-11 00:56:30",700292,8.53,302.5,6.247,1.052,6.163,100.8731,1.527,2.852,14.05,0,109.7,13.51,2.28,264.5
"2009-03-11 00:57:00",700293,6.589,270.7,19.89,1.03,3.836,100.8737,1.529,2.708,14.15,0,109.7,13.51,2.29,232.7
"2009-03-11 00:57:30",700294,7.049,263.3,9.32,1.551,4.235,100.868,1.514,2.705,14.09,0,109.7,13.51,2.27,225.3
"2009-03-11 00:58:00",700295,6.643,256.1,8.71,1.194,4.349,100.8601,1.494,2.735,14.12,0,109.7,13.51,2.25,218.1
"2009-03-11 00:58:30",700296,6.793,255.3,8.95,1.265,5.729,100.8519,1.473,2.79,14.21,0,109.7,13.51,2.23,217.3
"2009-03-11 00:59:00",700297,6.057,270.3,9.28,1.381,5.994,100.8463,1.459,2.795,14.3,0,109.7,13.51,2.22,232.3
"2009-03-11 00:59:30",700298,6.581,262.4,6.653,0.927,6.201,100.8466,1.459,2.766,14.25,0,109.7,13.51,2.22,224.4
"2009-03-11 01:00:00",700299,3.943,253.9,6.918,0.921,2.037,100.8483,1.464,2.559,14.17,0,109.7,13.51,2.22,215.9
"2009-03-11 01:00:30",700300,6.203,264.3,6.552,1.029,5.36,100.8469,1.46,2.682,14.62,0,109.7,13.51,2.22,226.3
"2009-03-11 01:01:00",700301,4.429,258.3,7.873,0.935,3.512,100.8427,1.449,2.576,15.44,0,109.7,13.51,2.21,220.3
"2009-03-11 01:01:30",700302,6.022,273.4,8.53,0.936,5.534,100.8333,1.426,2.717,15.59,0,109.7,13.52,2.18,235.4
"2009-03-11 01:02:00",700303,6.545,262.6,6.803,0.886,6.252,100.8282,1.413,2.763,15.74,0,109.6,13.52,2.17,224.6
"2009-03-11 01:02:30",700304,6.047,256.3,5.587,0.89,5.852,100.8149,1.379,2.753,15.82,0,109.6,13.52,2.14,218.3
"2009-03-11 01:03:00",700305,4.827,246.8,7.394,1.194,3.597,100.8144,1.377,2.546,15.6,0,109.7,13.52,2.13,208.8
"2009-03-11 01:03:30",700306,4.207,240.9,5.043,1.154,2.908,100.8104,1.367,2.53,15.6,0,109.7,13.52,2.12,202.9
"2009-03-11 01:04:00",700307,4.164,255.5,12.31,1.133,4.122,100.7994,1.339,2.514,15.46,0,109.6,13.51,2.10,217.5
"2009-03-11 01:04:30",700308,4.915,277.9,21.91,1.106,5.283,100.7858,1.304,2.68,15.36,0,109.6,13.52,2.06,239.9
"2009-03-11 01:05:00",700309,6.021,282.1,14.53,1.437,5.607,100.7804,1.291,2.604,14.76,0,109.7,13.52,2.05,244.1
"2009-03-11 01:05:30",700310,4.127,286,18.51,1.179,5.75,100.7816,1.294,2.614,14.48,0,109.6,13.51,2.05,248.0
"2009-03-11 01:06:00",700311,2.682,276.1,8.27,1.252,3.897,100.7819,1.294,2.493,14.78,0,109.6,13.52,2.05,238.1
"2009-03-11 01:06:30",700312,4.661,289.6,12.89,1.397,3.253,100.785,1.302,2.479,15.22,0,109.6,13.52,2.06,251.6
"2009-03-11 01:07:00",700313,4.383,314.4,5.593,1.337,3.288,100.7816,1.294,2.468,14.81,0,109.6,13.53,2.05,276.4
"2009-03-11 01:07:30",700314,4.944,304.3,14.79,1.008,4.847,100.7754,1.278,2.519,14.56,0,109.6,13.53,2.03,266.3
"2009-03-11 01:08:00",700315,4.629,289.7,8.9,0.925,6.597,100.771,1.266,2.593,14.49,0,109.6,13.53,2.02,251.7
"2009-03-11 01:08:30",700316,4.525,276,9.03,1.125,5.835,100.7676,1.258,2.571,14.7,0,109.6,13.53,2.01,238.0
"2009-03-11 01:09:00",700317,3.417,263.8,15.46,1.181,4.301,100.7679,1.259,2.493,14.66,0,109.6,13.53,2.02,225.8
"2009-03-11 01:09:30",700318,3.162,251.1,6.54,0.608,1.475,100.7719,1.269,2.287,14.44,0,109.6,13.53,2.03,213.1
"2009-03-11 01:10:00",700319,3.294,252.6,8.2,1.169,3.508,100.7713,1.267,2.412,14.56,0,109.6,13.54,2.02,214.6
"2009-03-11 01:10:30",700320,1.835,267.2,11.3,0.781,2.964,100.7682,1.259,2.467,14.86,0,109.6,13.54,2.02,229.2
"2009-03-11 01:11:00",700321,3.01,316.9,28.25,1.236,5.451,100.7538,1.223,2.526,15.04,0,109.6,13.54,1.98,278.9
"2009-03-11 01:11:30",700322,3.113,317.7,12.94,0.744,6.222,100.7448,1.2,2.522,15.02,0,109.6,13.54,1.96,279.7
"2009-03-11 01:12:00",700323,1.385,286.4,27.35,1.212,3.217,100.7451,1.2,2.367,14.77,0,109.6,13.54,1.96,248.4
"2009-03-11 01:12:30",700324,0.562,272.6,25.11,0.151,0.428,100.7465,1.204,2.227,14.49,0,109.6,13.58,1.96,234.6
"2009-03-11 01:13:00",700325,0.534,216.4,29.47,0.19,0.693,100.7468,1.205,2.229,14.51,0,109.6,13.58,1.96,178.4
"2009-03-11 01:13:30",700326,1.77,202,40.4,1.4,2.91,100.7417,1.192,2.299,14.43,0,109.6,13.55,1.95,164.0
"2009-03-11 01:14:00",700327,1.717,160.8,28.38,1.341,3.295,100.7391,1.185,2.341,14.45,0,109.6,13.55,1.94,122.8
"2009-03-11 01:14:30",700328,1.141,194.5,7.805,1.154,2.909,100.7372,1.18,2.336,14.57,0,109.6,13.55,1.94,156.5
"2009-03-11 01:15:00",700329,2.63,223,17.06,1.142,5.255,100.7329,1.169,2.427,14.83,0,109.6,13.55,1.93,185.0
"2009-03-11 01:15:30",700330,2.618,249.1,16.76,1.187,5.121,100.7241,1.147,2.399,15,0,109.6,13.55,1.90,211.1
"2009-03-11 01:16:00",700331,0.673,276.1,28.02,0.746,1.463,100.7128,1.118,2.26,14.94,0,109.6,13.55,1.87,238.1
"2009-03-11 01:16:30",700332,0.746,261.2,20.27,0.417,0.609,100.7128,1.118,2.158,14.94,0,109.6,13.59,1.87,223.2
"2009-03-11 01:17:00",700333,0.837,234.3,21.03,0.296,0.509,100.7108,1.113,2.25,15.39,0,109.6,13.59,1.87,196.3
"2009-03-11 01:17:30",700334,2.134,213.7,19.03,1.004,2.116,100.6961,1.076,2.175,15.89,0,109.6,13.56,1.83,175.7
"2009-03-11 01:18:00",700335,3.45,174.8,19.27,1.071,2.537,100.6806,1.036,2.269,16.86,0,109.6,13.56,1.79,136.8
"2009-03-11 01:18:30",700336,5.932,178.8,8.6,1.108,4.04,100.673,1.016,2.325,19.51,0,109.6,13.56,1.77,140.8
"2009-03-11 01:19:00",700337,5.284,180,13.08,1.135,5.868,100.6492,0.956,2.4,20.76,0,109.6,13.56,1.71,142.0
"2009-03-11 01:19:30",700338,7.585,179.1,12.14,1.562,5.576,100.6289,0.904,2.338,21.09,0,109.6,13.56,1.66,141.1
"2009-03-11 01:20:00",700339,6.256,180.5,13.32,1.686,4.674,100.6133,0.864,2.303,21.77,0,109.6,13.55,1.62,142.5
"2009-03-11 01:20:30",700340,6.027,168.9,13.64,1.195,2.771,100.5901,0.805,2.071,21.52,0,109.6,13.55,1.56,130.9
"2009-03-11 01:21:00",700341,7.352,164,7.373,1.612,3.99,100.5684,0.75,2.062,21.8,0,109.5,13.55,1.50,126.0
"2009-03-11 01:21:30",700342,8.08,180.4,9.74,1.269,4.335,100.5497,0.702,2.135,23.8,0,109.6,13.55,1.46,142.4
"2009-03-11 01:22:00",700343,9.06,170.5,6.444,1.402,5.219,100.5141,0.611,2.188,24.53,0,109.5,13.56,1.37,132.5
"2009-03-11 01:22:30",700344,9.1,185.1,7.219,0.923,5.609,100.473,0.507,2.097,25.19,0,109.5,13.56,1.26,147.1
"2009-03-11 01:23:00",700345,9.1,190.1,4.588,1.041,5.581,100.4281,0.392,1.97,25.18,0,109.5,13.55,1.15,152.1
"2009-03-11 01:23:30",700346,9.86,189.7,6.029,0.658,5.763,100.4091,0.344,1.938,25.2,0,109.5,13.56,1.10,151.7
"2009-03-11 01:24:00",700347,9.77,193,4.324,0.739,5.197,100.3919,0.3,1.854,25.1,0,109.5,13.55,1.05,155.0
"2009-03-11 01:24:30",700348,9.43,188.4,4.772,0.768,4.977,100.3675,0.238,1.814,25.64,0,109.5,13.55,0.99,150.4
"2009-03-11 01:25:00",700349,8.8,181.5,5.674,0.734,5.282,100.3446,0.179,1.757,25.63,0,109.5,13.56,0.93,143.5
"2009-03-11 01:25:30",700350,9.48,185,6.924,0.591,4.537,100.3194,0.115,1.709,25.66,0,109.5,13.56,0.87,147.0
"2009-03-11 01:26:00",700351,9.2,185.1,4.3,0.821,4.469,100.2928,0.047,1.661,26.44,0,109.5,13.56,0.80,147.1
"2009-03-11 01:26:30",700352,10.67,178.2,4.306,1.392,4.446,100.2614,-0.033,1.612,26.27,0,109.5,13.56,0.72,140.2
"2009-03-11 01:27:00",700353,11.58,175,4.572,1.035,4.104,100.2249,-0.126,1.525,27.51,0,109.5,13.56,0.63,137.0
"2009-03-11 01:27:30",700354,10.49,182.7,6.118,0.953,5.513,100.1924,-0.209,1.45,26.86,0,109.5,13.56,0.54,144.7
"2009-03-11 01:28:00",700355,8.73,176.8,9.3,1.055,5.009,100.1686,-0.27,1.389,25.95,0,109.5,13.56,0.48,138.8
"2009-03-11 01:28:30",700356,10.83,173.5,5.764,0.744,4.567,100.1398,-0.343,1.315,26.34,0,109.5,13.56,0.41,135.5
"2009-03-11 01:29:00",700357,10.86,174.6,5.614,0.593,4.837,100.1169,-0.402,1.235,26.89,0,109.5,13.56,0.35,136.6
"2009-03-11 01:29:30",700358,11.13,173.2,4.477,0.571,5.004,100.0959,-0.455,1.184,26.78,0,109.5,13.56,0.30,135.2
"2009-03-11 01:30:00",700359,11.62,177.6,4.693,0.557,5.029,100.0724,-0.515,1.118,27.02,0,109.5,13.56,0.24,139.6
"2009-03-11 01:30:30",700360,11.49,180.9,6.461,1.031,5.204,100.0487,-0.576,1.079,27.1,0,109.5,13.56,0.17,142.9
"2009-03-11 01:31:00",700361,12.08,177.1,5.74,1.214,5.005,100.0283,-0.627,0.993,27.66,0,109.5,13.56,0.12,139.1
"2009-03-11 01:31:30",700362,11.12,180.7,4.421,0.799,5.363,100.0042,-0.689,0.926,27.52,0,109.5,13.56,0.06,142.7
"2009-03-11 01:32:00",700363,11.48,178.4,5.206,0.589,5.624,99.98528,-0.737,0.88,27.3,0,109.5,13.56,0.01,140.4
"2009-03-11 01:32:30",700364,12,181.8,4.89,0.701,5.455,99.96604,-0.786,0.819,27.29,0,109.5,13.57,-0.04,143.8
"2009-03-11 01:33:00",700365,12.13,183.3,4.258,0.732,5.496,99.95076,-0.825,0.763,27.01,0,109.5,13.57,-0.08,145.3
"2009-03-11 01:33:30",700366,12.38,184.9,4.502,0.712,5.415,99.93209,-0.873,0.715,26.93,0,109.5,13.57,-0.12,146.9
"2009-03-11 01:34:00",700367,11.89,183.7,4.003,0.687,5.494,99.92133,-0.9,0.667,26.63,0,109.5,13.57,-0.15,145.7
"2009-03-11 01:34:30",700368,12.04,185.5,4.151,0.711,5.352,99.90096,-0.952,0.631,26.45,0,109.5,13.57,-0.20,147.5
"2009-03-11 01:35:00",700369,11.71,181.8,4.415,0.495,5.485,99.89954,-0.956,0.575,26.13,0,109.5,13.57,-0.21,143.8
"2009-03-11 01:35:30",700370,11.52,181.8,3.986,0.694,5.699,99.8919,-0.975,0.521,26.09,0,109.5,13.57,-0.23,143.8
"2009-03-11 01:36:00",700371,11.75,181.1,3.364,0.682,5.579,99.88623,-0.99,0.506,26.07,0,109.5,13.57,-0.24,143.1
"2009-03-11 01:36:30",700372,11.69,181.5,4.138,0.709,5.499,99.88311,-0.998,0.464,26.06,0,109.5,13.56,-0.25,143.5
"2009-03-11 01:37:00",700373,11.61,180.5,4.04,0.817,5.427,99.88283,-0.998,0.42,26.06,0,109.5,13.56,-0.25,142.5
"2009-03-11 01:37:30",700374,11.96,181.1,3.899,0.654,5.21,99.88651,-0.989,0.411,26.26,0,109.5,13.56,-0.24,143.1
"2009-03-11 01:38:00",700375,12.18,181.6,3.64,0.414,5.664,99.8865,-0.989,0.402,26.27,0,109.5,13.56,-0.24,143.6
"2009-03-11 01:38:30",700376,11.97,181.4,3.939,0.594,5.246,99.86867,-1.034,0.394,26.96,0,109.5,13.56,-0.29,143.4
"2009-03-11 01:39:00",700377,12.31,181.7,3.785,0.683,5.188,99.85649,-1.065,0.33,27.68,0,109.5,13.56,-0.32,143.7
"2009-03-11 01:39:30",700378,13.15,181.8,3.89,0.629,5.179,99.85423,-1.071,0.323,28.48,0,109.5,13.56,-0.32,143.8
"2009-03-11 01:40:00",700379,13.48,182,3.756,0.424,5.385,99.83243,-1.127,0.289,29.2,0,109.4,13.56,-0.38,144.0
"2009-03-11 01:40:30",700380,13.41,182.5,3.774,0.636,5.295,99.81602,-1.169,0.264,29.42,0,109.5,13.56,-0.42,144.5
"2009-03-11 01:41:00",700381,13.3,182.1,3.712,0.557,5.536,99.79506,-1.222,0.229,29.45,0,109.5,13.57,-0.47,144.1
"2009-03-11 01:41:30",700382,13.04,183.6,3.732,0.685,5.687,99.78742,-1.241,0.185,28.79,0,109.5,13.57,-0.49,145.6
"2009-03-11 01:42:00",700383,12.54,183.4,3.766,0.46,5.937,99.76308,-1.304,0.127,28,0,109.5,13.57,-0.56,145.4
"2009-03-11 01:42:30",700384,12.4,182,3.971,0.716,5.836,99.76222,-1.306,0.107,27.54,0,109.5,13.57,-0.56,144.0
"2009-03-11 01:43:00",700385,12.38,181.4,4.119,0.632,5.924,99.76222,-1.306,0.071,27.39,0,109.5,13.57,-0.56,143.4
"2009-03-11 01:43:30",700386,12.12,180.9,3.785,0.705,5.879,99.76195,-1.306,0.06,27.24,0,109.5,13.57,-0.56,142.9
"2009-03-11 01:44:00",700387,12.09,180.9,3.811,0.596,6.035,99.76222,-1.306,0.026,27.04,0,109.5,13.57,-0.56,142.9
"2009-03-11 01:44:30",700388,11.73,179.6,4.22,0.569,5.967,99.76222,-1.306,0.026,26.87,0,109.5,13.58,-0.56,141.6
"2009-03-11 01:45:00",700389,11.57,181,4.338,0.592,5.768,99.76732,-1.293,0.017,26.9,0,109.5,13.58,-0.55,143.0
"2009-03-11 01:45:30",700390,10.99,179.5,3.945,0.633,5.943,99.79138,-1.231,0.037,26.66,0,109.5,13.58,-0.48,141.5
"2009-03-11 01:46:00",700391,10.77,179.2,3.31,0.678,5.844,99.79619,-1.219,0.028,26.42,0,109.4,13.58,-0.47,141.2
"2009-03-11 01:46:30",700392,10.84,180.8,3.664,0.615,5.749,99.80327,-1.201,0.051,26.25,0,109.5,13.58,-0.45,142.8
"2009-03-11 01:47:00",700393,11.33,181.7,3.979,0.743,5.561,99.82478,-1.146,0.055,26.27,0,109.4,13.58,-0.40,143.7
"2009-03-11 01:47:30",700394,11.95,180.5,4.219,0.59,5.77,99.83129,-1.13,0.077,26.26,0,109.4,13.58,-0.38,142.5
"2009-03-11 01:48:00",700395,11.98,182.6,3.643,0.607,5.596,99.84629,-1.091,0.094,26.23,0,109.4,13.58,-0.34,144.6
"2009-03-11 01:48:30",700396,11.99,184,4.071,0.7,5.583,99.86158,-1.052,0.134,26.27,0,109.4,13.58,-0.30,146.0
"2009-03-11 01:49:00",700397,12.68,184.4,3.881,0.646,5.295,99.86413,-1.046,0.136,26.56,0,109.4,13.58,-0.30,146.4